FW2973 Weather Reports


Display with metric or nautical units.
time (UTC)temp
F
wind
direction
speed
MPH
gust
MPH
rain 1hr
in
rain 24hr
in
rain mn
in
humidity
%
barometer
mb
20260502224147 49 185 1.0 2.0 0.00 0.08 0.08 89 1012.9
20260502223904 49 164 1.0 3.0 0.00 0.08 0.08 88 1012.9
20260502223147 50 243 2.0 4.0 0.00 0.08 0.08 88 1012.9
20260502222647 50 251 2.0 4.0 0.00 0.08 0.08 87 1012.7
20260502222133 50 65 1.0 3.0 0.00 0.08 0.08 87 1012.7
20260502221633 51 92 2.0 4.0 0.00 0.08 0.08 86 1012.7
20260502221133 51 236 2.0 5.0 0.00 0.08 0.08 85 1012.9
20260502220633 51 244 3.0 6.0 0.00 0.08 0.08 85 1012.9
20260502220350 51 67 3.0 6.0 0.00 0.08 0.08 85 1013.0
20260502215633 51 268 3.0 6.0 0.00 0.08 0.08 85 1013.0
20260502215133 52 284 4.0 7.0 0.00 0.08 0.08 85 1012.9
20260502214632 52 115 4.0 7.0 0.00 0.08 0.08 84 1012.8
20260502214133 52 267 3.0 5.0 0.00 0.08 0.08 83 1012.8
20260502213855 52 170 3.0 5.0 0.00 0.08 0.08 84 1012.7
20260502213401 52 276 3.0 5.0 0.00 0.08 0.08 84 1012.7
20260502212633 52 231 2.0 5.0 0.00 0.08 0.08 83 1012.7
20260502212133 53 240 2.0 3.0 0.00 0.08 0.08 84 1012.7
20260502211618 53 142 2.0 3.0 0.00 0.08 0.08 82 1012.7
20260502211338 53 172 2.0 4.0 0.00 0.08 0.08 81 1012.7
20260502210604 53 190 2.0 6.0 0.00 0.08 0.08 80 1012.7
20260502210105 53 153 2.0 6.0 0.00 0.08 0.08 81 1012.7
20260502205604 53 246 3.0 5.0 0.00 0.08 0.08 80 1012.7
20260502205105 54 204 3.0 6.0 0.00 0.08 0.08 79 1012.7
20260502204604 54 148 2.0 6.0 0.00 0.08 0.08 78 1012.6
20260502204106 54 263 2.0 5.0 0.00 0.08 0.08 82 1012.6
20260502203604 53 277 2.0 4.0 0.00 0.08 0.08 83 1012.7
20260502203053 53 134 2.0 4.0 0.00 0.08 0.08 83 1012.7
20260502202535 53 161 1.0 3.0 0.00 0.08 0.08 83 1012.7
20260502202035 53 174 2.0 2.0 0.00 0.08 0.08 83 1012.6
20260502201533 53 158 2.0 2.0 0.00 0.08 0.08 83 1012.7
20260502201019 53 234 2.0 3.0 0.00 0.08 0.08 83 1012.8
20260502200519 53 155 2.0 3.0 0.00 0.08 0.08 82 1012.8
20260502200005 53 152 2.0 5.0 0.00 0.08 0.08 82 1012.9
20260502195505 53 178 2.0 5.0 0.00 0.08 0.08 81 1013.0
20260502195004 53 149 2.0 4.0 0.00 0.08 0.08 81 1013.0
20260502194505 53 150 2.0 4.0 0.00 0.08 0.08 82 1013.1
20260502194005 53 260 2.0 4.0 0.00 0.08 0.08 84 1013.0
20260502193451 53 206 2.0 4.0 0.00 0.08 0.08 85 1013.1
20260502192950 52 132 2.0 4.0 0.00 0.08 0.08 85 1013.1
20260502192450 52 142 2.0 3.0 0.00 0.08 0.08 85 1013.2
20260502191950 52 145 2.0 4.0 0.00 0.08 0.08 85 1013.3
20260502191451 52 220 2.0 4.0 0.00 0.08 0.08 85 1013.4
20260502191219 52 171 2.0 3.0 0.00 0.08 0.08 85 1013.4
20260502190659 52 139 2.0 3.0 0.01 0.08 0.08 84 1013.5
20260502185935 52 143 2.0 4.0 0.01 0.08 0.08 86 1013.6
20260502185436 51 157 2.0 5.0 0.01 0.08 0.08 87 1013.6
20260502184936 50 151 3.0 5.0 0.01 0.08 0.08 88 1013.6
20260502184435 50 196 3.0 5.0 0.02 0.08 0.08 90 1013.7
20260502183937 50 248 3.0 4.0 0.02 0.08 0.08 90 1013.7
20260502183659 50 167 2.0 4.0 0.03 0.08 0.08 91 1013.7
20260502182937 49 183 2.0 3.0 0.03 0.08 0.08 92 1013.7
20260502182435 49 222 2.0 3.0 0.04 0.08 0.08 91 1013.7
20260502181936 49 176 1.0 3.0 0.04 0.08 0.08 91 1013.8
20260502181434 49 251 1.0 2.0 0.04 0.08 0.08 91 1013.8
20260502180921 49 209 2.0 4.0 0.04 0.08 0.08 91 1013.8
20260502180421 49 201 2.0 4.0 0.04 0.07 0.07 90 1014.0
20260502180143 49 199 2.0 4.0 0.04 0.07 0.07 90 1014.0
20260502163854 52 157 2.0 3.0 0.01 0.03 0.03 84 1014.0
20260502163353 52 154 2.0 3.0 0.01 0.03 0.03 83 1014.0
20260502163103 52 185 2.0 3.0 0.01 0.03 0.03 83 1013.8
20260502162338 52 238 2.0 4.0 0.01 0.03 0.03 82 1013.9
20260502161836 52 214 2.0 5.0 0.01 0.03 0.03 81 1013.9
20260502161326 53 262 3.0 5.0 0.01 0.03 0.03 81 1013.9
20260502160824 53 187 2.0 4.0 0.01 0.03 0.03 83 1014.1
20260502160323 53 92 2.0 4.0 0.01 0.03 0.03 82 1014.2
20260502152309 53 170 2.0 5.0 0.01 0.02 0.02 83 1014.5
20260502151810 53 48 1.0 3.0 0.01 0.02 0.02 83 1014.5
20260502151309 53 127 1.0 3.0 0.01 0.02 0.02 82 1014.3
20260502150811 53 183 2.0 3.0 0.01 0.02 0.02 82 1014.4
20260502150309 53 146 1.0 3.0 0.01 0.02 0.02 81 1014.4
20260502130211 50 211 3.0 6.0 0.00 0.00 0.00 86 1015.3
20260502130152 50 68 4.0 6.0 0.00 0.00 0.00 86 1015.3
20260502123653 50 235 4.0 7.0 0.00 0.00 0.00 84 1015.3
20260502123154 50 238 4.0 8.0 0.00 0.00 0.00 83 1015.3
20260502122654 50 59 4.0 8.0 0.00 0.00 0.00 83 1015.3
20260502122154 50 240 4.0 7.0 0.00 0.00 0.00 83 1015.3
20260502121654 50 224 3.0 7.0 0.00 0.00 0.00 83 1015.1
20260502121154 50 237 4.0 7.0 0.00 0.00 0.00 83 1015.0
20260502120654 50 228 4.0 7.0 0.00 0.00 0.00 83 1014.9
20260502120154 50 263 4.0 7.0 0.00 0.00 0.00 83 1014.7
20260502115648 50 230 4.0 7.0 0.00 0.00 0.00 83 1014.7
20260502115416 50 217 4.0 7.0 0.00 0.00 0.00 83 1014.7
20260502114914 49 238 5.0 8.0 0.00 0.00 0.00 83 1014.8
20260502114414 49 235 5.0 8.0 0.00 0.00 0.00 83 1014.6
20260502113649 49 260 4.0 8.0 0.00 0.00 0.00 84 1014.5
20260502113149 49 247 3.0 6.0 0.00 0.00 0.00 84 1014.4
20260502112643 49 196 2.0 4.0 0.00 0.00 0.00 85 1014.4
20260502112143 48 182 2.0 4.0 0.00 0.00 0.00 85 1014.5
20260502111643 48 192 2.0 3.0 0.00 0.00 0.00 85 1014.3
20260502111629 48 183 2.0 3.0 0.00 0.00 0.00 85 1014.5
20260502110642 48 233 2.0 4.0 0.00 0.00 0.00 84 1014.6
20260502110142 48 195 1.0 4.0 0.00 0.00 0.00 84 1014.5
20260502105628 48 192 1.0 3.0 0.00 0.00 0.00 84 1014.4
20260502105129 48 0 2.0 4.0 0.00 0.00 0.00 84 1014.4
20260502104614 48 29 2.0 4.0 0.00 0.00 0.00 84 1014.4
20260502104114 48 247 2.0 3.0 0.00 0.00 0.00 84 1014.4
20260502103614 48 237 1.0 3.0 0.00 0.00 0.00 83 1014.2
20260502103600 48 142 1.0 2.0 0.00 0.00 0.00 83 1014.2
20260502102613 48 0 1.0 3.0 0.00 0.00 0.00 83 1014.2
20260502102114 48 218 2.0 3.0 0.00 0.00 0.00 83 1014.3
20260502101836 48 207 2.0 3.0 0.00 0.00 0.00 83 1014.4
20260502101601 47 195 1.0 3.0 0.00 0.00 0.00 83 1014.3
20260502100614 47 259 1.0 3.0 0.00 0.00 0.00 82 1014.1
20260502100114 47 184 1.0 2.0 0.00 0.00 0.00 82 1014.1
20260502091043 48 207 2.0 3.0 0.00 0.00 0.00 80 1014.0
20260502090543 48 244 2.0 2.0 0.00 0.00 0.00 80 1014.0
20260502090251 48 229 2.0 2.0 0.00 0.00 0.00 79 1013.9
20260502071517 49 66 0.0 2.0 0.00 0.00 0.00 73 1013.9
20260502071017 50 185 1.0 2.0 0.00 0.00 0.00 73 1013.9
20260502070519 50 81 2.0 4.0 0.00 0.00 0.00 72 1013.9
20260502070003 50 211 3.0 5.0 0.00 0.00 0.00 72 1013.9
20260502065454 50 70 3.0 5.0 0.00 0.00 0.00 71 1013.9
20260502064954 50 241 3.0 5.0 0.00 0.00 0.00 71 1014.0
20260502064448 50 218 3.0 6.0 0.00 0.00 0.00 71 1014.0
20260502064206 50 228 4.0 8.0 0.00 0.00 0.00 70 1014.1
20260502063449 50 240 4.0 8.0 0.00 0.00 0.00 71 1014.1
20260502063206 50 265 4.0 8.0 0.00 0.00 0.00 70 1014.1
20260502062448 50 227 4.0 8.0 0.00 0.00 0.00 70 1014.1
20260502061948 50 227 4.0 8.0 0.00 0.00 0.00 70 1014.0
20260502061449 50 258 5.0 9.0 0.00 0.00 0.00 70 1014.0
20260502060946 50 235 5.0 9.0 0.00 0.00 0.00 70 1014.1
20260502060447 50 233 5.0 9.0 0.00 0.00 0.00 71 1014.1
20260502055947 50 241 4.0 9.0 0.00 0.00 0.00 71 1014.1
20260502055446 50 241 4.0 8.0 0.00 0.00 0.00 71 1014.1
20260502054947 50 225 4.0 8.0 0.00 0.00 0.00 72 1014.1
20260502054447 50 189 4.0 7.0 0.00 0.00 0.00 72 1014.1
20260502053946 49 258 3.0 7.0 0.00 0.00 0.00 72 1014.1
20260502053447 49 241 3.0 6.0 0.00 0.00 0.00 73 1014.3
20260502052938 49 211 3.0 6.0 0.00 0.00 0.00 73 1014.3
20260502052437 49 229 2.0 5.0 0.00 0.00 0.00 73 1014.3
20260502051934 49 237 1.0 4.0 0.00 0.00 0.00 73 1014.4
20260502051658 49 117 1.0 4.0 0.00 0.00 0.00 72 1014.4
20260502051202 49 83 2.0 4.0 0.00 0.00 0.00 72 1014.3
20260502050434 49 287 2.0 4.0 0.00 0.00 0.00 71 1014.3
20260502045934 49 192 2.0 4.0 0.00 0.00 0.00 71 1014.3
20260502045420 50 224 2.0 4.0 0.00 0.00 0.00 71 1014.4
20260502044919 50 226 2.0 4.0 0.00 0.00 0.00 70 1014.3
20260502044419 50 225 2.0 4.0 0.00 0.00 0.00 70 1014.3
20260502043919 50 230 2.0 4.0 0.00 0.00 0.00 69 1014.4
20260502043420 50 237 2.0 5.0 0.00 0.00 0.00 69 1014.4
20260502042920 50 229 3.0 5.0 0.00 0.00 0.00 69 1014.3
20260502042419 50 255 3.0 5.0 0.00 0.00 0.00 68 1014.4
20260502041920 50 207 3.0 6.0 0.00 0.00 0.00 68 1014.3
20260502041637 50 256 3.0 7.0 0.00 0.00 0.00 68 1014.3
20260502041137 50 244 3.0 7.0 0.00 0.00 0.00 67 1014.3
20260502040632 50 210 3.0 7.0 0.00 0.00 0.00 66 1014.4
20260502035908 51 241 3.0 6.0 0.00 0.00 0.00 66 1014.5
20260502035406 51 243 3.0 4.0 0.00 0.00 0.00 65 1014.5
20260502034850 51 246 3.0 5.0 0.00 0.00 0.00 64 1014.4
20260502034351 51 234 3.0 5.0 0.00 0.00 0.00 63 1014.4
20260502033852 51 250 4.0 5.0 0.00 0.00 0.00 63 1014.4
20260502033350 51 246 3.0 4.0 0.00 0.00 0.00 62 1014.4
20260502033114 51 216 3.0 5.0 0.00 0.00 0.00 61 1014.5
20260502032351 51 244 3.0 6.0 0.00 0.00 0.00 61 1014.4
20260502032119 51 239 4.0 6.0 0.00 0.00 0.00 60 1014.5
20260502031351 51 262 3.0 5.0 0.00 0.00 0.00 60 1014.4
20260502030851 51 253 3.0 5.0 0.00 0.00 0.00 59 1014.4
20260502030351 52 239 3.0 5.0 0.00 0.00 0.00 58 1014.3
20260502025851 52 235 4.0 5.0 0.00 0.00 0.00 57 1014.2
20260502025351 52 253 3.0 6.0 0.00 0.00 0.00 57 1014.2
20260502024850 52 35 3.0 6.0 0.00 0.00 0.00 56 1014.1
20260502024349 52 268 4.0 6.0 0.00 0.00 0.00 56 1014.2
20260502023849 52 245 4.0 6.0 0.00 0.00 0.00 55 1014.2
20260502023349 52 264 3.0 5.0 0.00 0.00 0.00 55 1014.2
20260502022850 52 270 3.0 7.0 0.00 0.00 0.00 54 1014.2
20260502022350 52 248 4.0 7.0 0.00 0.00 0.00 53 1014.3
20260502021850 52 250 4.0 8.0 0.00 0.00 0.00 53 1014.3
20260502021350 52 247 4.0 8.0 0.00 0.00 0.00 53 1014.3
20260502020850 52 239 3.0 6.0 0.00 0.00 0.00 54 1014.3
20260502020350 52 247 3.0 5.0 0.00 0.00 0.00 54 1014.2
20260502015850 51 230 3.0 5.0 0.00 0.00 0.00 53 1014.2
20260502015340 51 242 3.0 5.0 0.00 0.00 0.00 52 1014.1
20260502014840 51 198 3.0 5.0 0.00 0.00 0.00 52 1014.1
20260502014337 51 243 2.0 4.0 0.00 0.00 0.00 51 1014.0
20260502014058 51 234 1.0 3.0 0.00 0.00 0.00 54 1013.9
20260502013323 51 213 1.0 2.0 0.00 0.00 0.00 54 1013.9
20260502012822 51 72 1.0 1.0 0.00 0.00 0.00 54 1013.9
20260502012307 51 82 2.0 3.0 0.00 0.00 0.00 52 1013.9
20260502011808 52 71 2.0 3.0 0.00 0.00 0.00 50 1013.9
20260502011307 52 72 2.0 3.0 0.00 0.00 0.00 48 1013.8
20260502010807 52 84 2.0 3.0 0.00 0.00 0.00 47 1013.8
20260502010307 52 242 2.0 3.0 0.00 0.00 0.00 48 1013.8
20260502005808 53 237 2.0 3.0 0.00 0.00 0.00 48 1013.7
20260502005308 53 234 1.0 2.0 0.00 0.00 0.00 50 1013.6
20260502004808 53 74 1.0 2.0 0.00 0.00 0.00 49 1013.5
20260502004308 53 172 1.0 2.0 0.00 0.00 0.00 47 1013.4
20260502003808 54 247 1.0 2.0 0.00 0.00 0.00 44 1013.4
20260502003253 54 224 1.0 2.0 0.00 0.00 0.00 43 1013.3
20260502002754 54 231 1.0 2.0 0.00 0.00 0.00 43 1013.3
20260502002254 55 229 1.0 2.0 0.00 0.00 0.00 43 1013.2
20260502001753 55 103 1.0 2.0 0.00 0.00 0.00 43 1013.1
20260502001730 56 182 1.0 2.0 0.00 0.00 0.00 43 1013.0
20260502000754 56 181 1.0 2.0 0.00 0.00 0.00 42 1012.9
20260502000255 57 168 0.0 1.0 0.00 0.00 0.00 40 1012.9
20260501235754 57 0 0.0 0.0 0.00 0.00 0.00 39 1012.8
20260501235516 58 0 0.0 0.0 0.00 0.00 0.00 39 1012.7
20260501234755 58 0 0.0 1.0 0.00 0.00 0.00 37 1012.7
20260501234252 59 0 1.0 2.0 0.00 0.00 0.00 36 1012.5
20260501233753 59 230 2.0 5.0 0.00 0.00 0.00 36 1012.4
20260501233252 59 252 2.0 5.0 0.00 0.00 0.00 35 1012.4
20260501233014 60 223 2.0 4.0 0.00 0.00 0.00 35 1012.3
20260501232252 60 254 2.0 4.0 0.00 0.00 0.00 35 1012.2
20260501232235 60 250 2.0 7.0 0.00 0.00 0.00 34 1012.0
20260501231253 61 243 2.0 7.0 0.00 0.00 0.00 34 1012.0
20260501230753 61 265 2.0 5.0 0.00 0.00 0.00 32 1011.9
20260501230255 62 247 2.0 5.0 0.00 0.00 0.00 32 1011.9
20260501225753 62 239 3.0 5.0 0.00 0.00 0.00 32 1011.8
20260501225254 63 254 2.0 4.0 0.00 0.00 0.00 31 1011.8
20260501225230 64 267 2.0 6.0 0.00 0.00 0.00 30 1011.7